Kuchera_Ratio
0.0 0.0 0.0 0.0 0.0 0.0 0.0 0.0 0.0 0.0 0.0 0.0 0.0 0.0 0.0 0.0 0.0 0.0 0.0 0.0 0.0 0.0 0.0 0.0 0.0 0.0 0.0 0.0 0.0 0.0 0.0 0.0 0.0 0.0 0.0 0.0 0.0 0.0 0.0 0.0 0.0 0.0 0.0 0.0
0.0 0.0 0.0 0.0 0.0 0.0 0.0 0.0 0.0 0.0 0.0 0.0 0.0 0.0 0.0 0.0 0.0 0.0 0.0 0.0 0.0 0.0 0.0 0.0 0.0 0.0 0.0 0.0 0.0 0.0 0.0 0.0 0.0 0.0 0.0 0.0 0.0 0.0 0.0 0.0 0.0 0.0 0.0 0.0
0.0 0.0 0.0 0.0 0.0 0.0 0.0 0.0 0.0 0.0 0.0 0.0 0.0 0.0 0.0 0.0 0.0 0.0 0.0 0.0 0.0 0.0 0.0 0.0 0.0 0.0 0.0 0.0 0.0 0.0 0.0 0.0 0.0 0.0 0.0 0.0 0.0 0.0 0.0 0.0 0.0 0.0 0.0 0.0
0.0 0.0 0.0 0.0 0.0 0.0 0.0 0.0 0.0 0.0 0.0 1.2 0.0 2.8 0.0 0.0 0.0 0.0 0.0 0.0 0.0 0.0 0.0 0.0 0.0 0.0 0.0 0.0 0.0 0.0 0.0 0.0 0.0 0.0 0.0 0.0 0.0 0.0 0.0 0.0 0.0 0.0 0.0 0.0
0.0 0.0 0.0 0.0 0.0 0.0 0.0 0.0 0.0 0.0 0.0 0.0 0.0 2.9 0.0 0.0 0.0 0.0 0.0 0.0 0.0 0.0 0.0 0.0 0.0 0.0 0.0 0.0 0.0 0.0 0.0 0.0 0.0 0.0 0.0 0.0 0.0 0.0 0.0 0.0 0.0 0.0 0.0 0.0
0.0 0.0 0.0 0.0 0.0 0.0 0.0 0.0 0.0 0.0 0.0 7.9 0.0 0.0 0.0 0.0 0.0 0.0 0.0 0.0 0.0 0.0 0.0 0.0 0.0 0.0 0.0 0.0 0.0 0.0 0.0 0.0 0.0 0.0 0.0 0.0 0.0 0.0 0.0 0.0 0.0 0.0 0.0 0.0
0.0 0.0 0.0 0.0 0.0 0.0 0.0 0.0 4.7 11.7 11.5 11.0 0.0 1.4 0.0 0.0 0.0 0.0 0.0 0.0 0.0 0.0 0.0 0.0 0.0 0.0 0.0 0.0 0.0 0.0 0.0 0.0 0.0 0.0 0.0 0.0 0.0 0.0 0.0 0.0 0.0 0.0 0.0 0.0
0.0 0.4 0.0 0.0 0.0 0.0 0.0 0.0 5.0 12.9 12.4 7.7 0.0 4.6 0.0 0.0 0.0 0.0 0.0 0.0 0.0 0.0 0.0 0.0 0.0 0.0 0.0 0.0 0.0 0.0 0.0 0.0 0.0 0.0 0.0 0.0 0.0 0.0 0.0 0.0 0.0 0.0 0.0 0.0
0.0 0.0 0.0 0.0 0.0 0.0 0.0 0.0 0.0 6.4 5.1 9.8 5.6 0.0 0.0 0.0 0.0 0.0 0.0 0.0 0.0 0.0 0.0 0.0 0.0 0.0 0.0 0.0 0.0 0.0 0.0 0.0 0.0 0.0 0.0 0.0 0.0 0.0 0.0 0.0 0.0 0.0 0.0 0.0
0.0 4.0 0.0 0.0 0.0 0.0 0.0 0.0 5.8 2.6 13.9 15.3 6.4 5.1 0.9 0.0 0.0 0.0 0.0 0.0 0.0 0.0 0.0 0.0 0.0 0.0 0.0 0.0 0.0 0.0 0.0 0.0 0.1 0.3 0.0 0.0 0.0 0.0 0.0 0.2 1.8 1.6 0.0 0.0
0.0 0.0 0.1 0.0 0.0 0.0 0.0 0.1 0.0 0.0 6.2 14.5 14.0 8.7 0.0 0.0 0.0 1.1 0.0 0.0 0.0 0.0 0.0 0.0 0.0 0.0 0.0 0.0 0.0 0.0 0.0 0.3 1.5 1.3 0.7 1.7 2.8 2.5 2.6 3.5 3.4 3.4 3.3 1.8
0.0 0.0 11.8 2.9 0.0 0.0 0.0 0.0 0.0 10.4 11.7 7.9 7.3 8.2 0.0 0.0 0.0 0.0 0.0 0.0 0.0 0.0 0.0 0.0 0.0 0.0 0.0 0.0 0.0 0.0 0.0 1.0 1.2 1.6 2.6 2.5 2.8 3.9 4.5 4.9 5.5 5.4 4.4 3.8
0.0 7.0 14.6 12.7 2.5 0.0 1.3 0.0 0.0 0.0 7.0 10.9 13.3 11.7 0.0 0.0 0.0 0.0 0.0 0.0 0.0 0.0 0.0 0.0 0.0 0.0 0.0 0.0 0.0 0.0 0.0 0.1 1.5 2.4 3.5 4.2 5.2 6.0 6.1 6.6 6.9 6.5 6.3 5.3
0.0 5.2 11.5 14.6 7.7 1.5 8.4 4.0 1.0 6.1 12.6 13.0 12.2 8.4 0.0 0.0 0.0 0.0 2.2 2.6 0.9 0.0 0.0 0.0 0.0 0.0 0.0 0.0 0.0 0.0 0.0 0.0 0.8 2.8 4.4 5.8 6.5 7.4 8.1 9.2 10.1 9.9 9.9 9.2
0.0 12.5 8.0 5.4 3.0 4.5 7.7 8.3 6.0 9.2 7.4 13.3 9.1 8.0 0.5 0.0 0.0 0.0 0.9 1.2 0.9 0.9 0.0 0.0 0.0 0.0 0.0 0.0 0.0 0.0 0.0 0.0 0.9 3.6 6.0 7.4 8.6 9.4 9.3 9.3 9.5 10.5 10.8 10.8
0.0 13.3 12.3 13.8 10.5 9.6 12.5 9.0 8.6 8.4 7.8 7.5 6.0 7.2 0.0 1.2 1.0 1.1 1.5 1.4 2.5 2.1 0.0 0.0 0.2 0.0 0.0 0.0 0.0 0.0 0.0 0.5 1.5 2.9 4.5 5.7 7.2 8.5 9.6 11.0 12.1 12.1 11.7 12.1
8.4 14.3 14.7 19.2 13.2 14.6 19.7 13.5 11.3 9.1 5.3 5.9 12.9 6.5 8.5 8.9 4.8 5.4 6.4 5.1 4.6 3.0 0.0 0.0 0.0 0.0 0.0 0.2 0.0 2.0 1.4 2.0 3.2 4.6 5.8 7.6 9.0 10.0 11.0 11.0 12.2 12.8 13.3 13.3
11.4 15.7 15.8 20.3 16.7 24.7 13.2 4.6 6.2 8.5 6.8 5.8 7.1 10.5 11.7 7.3 6.4 7.0 0.5 5.2 4.1 0.5 0.7 1.1 0.0 0.0 0.0 0.1 1.7 2.8 4.6 5.6 6.6 8.2 9.3 9.8 10.8 12.0 12.4 12.9 13.4 13.3 13.5 14.0
5.0 12.3 16.6 20.9 20.4 15.8 12.9 8.2 8.1 14.1 13.8 10.7 10.0 11.0 6.7 7.9 8.6 7.7 0.0 0.2 0.9 1.2 0.0 0.0 0.0 1.1 2.9 4.1 6.2 7.7 8.9 9.7 10.8 12.1 12.4 12.5 12.8 13.5 13.8 14.2 14.1 13.9 14.4 14.7
9.3 9.1 16.1 17.9 21.7 25.1 14.4 9.9 4.8 4.8 17.7 10.5 8.8 12.7 10.4 10.3 16.8 14.5 1.2 1.1 1.6 0.0 0.0 0.4 1.7 4.6 6.6 8.7 11.2 12.5 13.2 13.7 14.2 14.0 14.0 14.4 15.1 16.0 16.2 15.6 15.6 15.2 15.4 15.4
17.4 17.6 18.6 18.6 21.4 18.3 10.9 9.3 5.8 21.5 17.2 10.3 8.4 9.9 9.7 14.8 11.0 8.8 1.8 2.0 0.0 0.2 1.8 6.2 8.1 10.8 11.1 12.6 14.5 15.3 15.5 16.3 16.0 16.6 17.1 17.8 18.1 19.1 19.0 18.9 18.5 18.7 18.7 18.0
17.0 20.5 21.4 18.2 22.6 22.7 6.2 10.0 16.5 12.9 7.6 7.7 7.9 7.6 9.3 9.1 6.8 3.7 2.7 3.0 3.4 5.4 8.2 9.7 12.1 13.2 13.4 14.7 16.4 16.5 16.9 16.9 18.5 19.3 19.7 20.3 21.3 22.2 21.5 22.6 22.2 21.9 21.8 22.0
17.7 14.8 16.3 16.6 17.4 6.9 6.5 6.4 4.7 5.4 7.3 7.7 8.6 8.6 6.9 9.4 9.9 4.7 5.0 4.7 9.4 12.1 12.9 13.8 14.4 14.8 15.6 16.3 16.7 16.6 17.1 18.3 19.4 20.3 21.0 22.1 23.0 23.9 23.8 24.7 24.7 24.8 24.2 24.3
13.1 7.3 14.1 14.3 12.7 9.2 6.1 3.8 2.5 1.7 6.9 2.8 2.5 3.8 4.5 10.6 6.1 6.0 7.6 10.3 12.6 14.1 14.6 14.9 15.4 15.9 16.2 16.6 17.1 18.4 19.7 20.4 20.7 21.7 22.5 23.5 24.7 25.4 25.0 24.1 23.9 24.9 25.2 25.4
12.8 13.5 13.7 14.6 10.7 8.0 6.3 5.5 2.8 2.3 2.1 3.3 2.6 3.0 4.3 6.0 7.7 9.5 12.6 13.8 14.5 15.2 15.8 16.3 16.7 16.8 17.0 17.6 18.0 19.7 20.8 21.4 22.3 23.0 23.9 24.8 25.4 25.6 25.5 24.8 24.9 24.4 23.5 23.1
9.1 12.2 14.1 15.4 7.8 8.1 7.4 5.6 1.3 5.6 5.9 3.5 4.9 6.6 8.0 9.8 12.2 13.8 14.7 15.4 16.1 16.4 17.0 17.2 17.4 17.4 17.5 18.5 19.6 21.0 21.7 23.0 23.5 23.6 24.5 26.1 26.3 26.3 25.8 26.0 25.6 21.5 20.0 18.9